Regional Weather Roundup
Issued by NWS State College, PA

Home | Current Version | Previous Version | Graphics & Text | Print | Product List | Glossary Off
Versions: 1 2 3 4 5 6 7 8 9 10 11 12 13 14 15 16 17 18 19 20 21 22 23 24 25 26 27 28 29 30 31 32 33 34 35 36 37 38 39 40 41 42 43 44 45 46 47 48 49 50

000
ASUS41 KCTP 280610
RWRCTP

REGIONAL WEATHER ROUNDUP
NATIONAL WEATHER SERVICE STATE COLLEGE PA
200 AM EDT SUN AUG 28 2016

Note: "fair" indicates few or no clouds below 12,000 feet with no
significant weather and/or obstructions to visibility.

* = STATION THAT DOES NOT REPORT PRECIPITATION /E.G. RAIN...SNOW...ETC/
    THUNDER OR FOG.

PAZ002>004-007>009-013>016-020>023-029>032-280700-
WESTERN PENNSYLVANIA

CITY           SKY/WX    TMP DP  RH WIND       PRES   REMARKS
ERIE           FAIR      76  66  71 S10       30.12S
MEADVILLE      FAIR      72  65  78 SW5       30.17S
FRANKLIN*        N/A     72  64  78 S7        30.18F
NEW CASTLE     FAIR      70  68  93 S3        30.17S
BEAVER COUNTY  NOT AVBL
BUTLER*        NOT AVBL
PITTSBURGH INT PTCLDY    75  69  81 CALM      30.16S
PITTSBURGH     CLEAR     77  66  68 S7        30.16S
INDIANA*       CLEAR     73  66  78 CALM      30.22S
LATROBE        CLEAR     75  66  73 SW5       30.18S
WASHINGTON CO* CLEAR     70  66  88 CALM      30.18S
$$

PAZ004>006-010>012-017>019-024>028-033>037-041-042-045-046-049>053-280700-
CENTRAL PENNSYLVANIA

CITY           SKY/WX    TMP DP  RH WIND       PRES   REMARKS
BRADFORD       FAIR      66  65  96 SE3       30.22F
DUBOIS         FAIR      72  63  73 SE5       30.21S
CLEARFIELD     FAIR      66  66 100 CALM      30.22S
JOHNSTOWN      CLEAR     71  65  81 S9        30.25F
ALTOONA        CLEAR     73  65  75 S7        30.23F
STATE COLLEGE  FAIR      68  65  91 W3        30.21S
WILLIAMSPORT   FAIR      68  64  87 CALM      30.18S
SELINSGROVE    CLEAR     65  65 100 CALM      30.20F
FT INDIANTOWN  CLEAR     69  64  86 SE2       30.22S
CAPITAL CITY   CLEAR     73  66  78 CALM      30.20S
HARRISBURG     CLEAR     73  69  87 E8        30.20S
YORK           CLEAR     72  66  81 SE5       30.21S
$$

PAZ038>040-043-044-047-048-054-055-060>062-067>071-280700-
EASTERN PENNSYLVANIA

CITY           SKY/WX    TMP DP  RH WIND       PRES   REMARKS
SCRANTON       FAIR      69  61  75 CALM      30.22F
MOUNT POCONO   FAIR      64  56  75 S5        30.28F
ALLENTOWN      PTCLDY    69  61  75 NE3       30.23S
QUAKERTOWN*    CLEAR     63  61  94 CALM      30.24F
READING        PTCLDY    71  61  70 SW5       30.21S
LANCASTER      CLEAR     71  69  93 NE3       30.22S
COATESVILLE    CLEAR     70  64  83 CALM      30.24F
POTTSTOWN      CLEAR     69  60  73 CALM      30.24S
BLUE BELL      CLEAR     61  61 100 CALM      30.21F
DOYLESTOWN     CLEAR     67  64  90 CALM      30.22F
WILLOW GROVE   NOT AVBL
NORTH PHILA    CLEAR     71  67  87 CALM      30.23F
PHILADELPHIA   PTCLDY    71  68  90 E5        30.21F
$$



USA.gov is the U.S. government's official web portal to all federal, state and local government web resources and services.